"Period start","avg(HW err(1)/warn(2) (#))","avg(Visibility (m))","avg(Weather code (#))","avg(Precip intensity (mm/h))","min(HW err(1)/warn(2) (#))","max(HW err(1)/warn(2) (#))","std(HW err(1)/warn(2) (#))","med(HW err(1)/warn(2) (#))","min(Visibility (m))","max(Visibility (m))","std(Visibility (m))","med(Visibility (m))","min(Weather code (#))","max(Weather code (#))","std(Weather code (#))","med(Weather code (#))","min(Precip intensity (mm/h))","max(Precip intensity (mm/h))","std(Precip intensity (mm/h))","med(Precip intensity (mm/h))"
2014-06-13 00:00:00,2,43440,0,0.00,0,2,1,2,32144,50000,7670,48447,0,0,0,0,0.00,0.00,0.00,0.00
2014-06-13 00:10:00,2,44180,0,0.00,2,2,0,2,35421,50000,4289,45176,0,0,0,0,0.00,0.00,0.00,0.00
2014-06-13 00:20:00,2,40256,0,0.00,2,2,0,2,31032,50000,5421,39878,0,0,0,0,0.00,0.00,0.00,0.00
2014-06-13 00:30:00,2,45383,0,0.00,2,2,0,2,36587,50000,5204,48064,0,0,0,0,0.00,0.00,0.00,0.00
2014-06-13 00:40:00,2,45233,0,0.00,2,2,0,2,27289,50000,6716,48034,0,0,0,0,0.00,0.00,0.00,0.00
2014-06-13 00:50:00,2,39098,0,0.00,2,2,0,2,28131,50000,8184,38232,0,0,0,0,0.00,0.00,0.00,0.00
2014-06-13 01:00:00,2,38142,0,0.00,2,2,0,2,29511,46126,4937,39702,0,0,0,0,0.00,0.00,0.00,0.00
2014-06-13 01:10:00,1,44057,0,0.00,0,2,1,0,36200,50000,4610,43536,0,0,0,0,0.00,0.00,0.00,0.00
2014-06-13 01:20:00,0,40749,0,0.00,0,0,0,0,23110,50000,8463,43052,0,0,0,0,0.00,0.00,0.00,0.00
2014-06-13 01:30:00,0,44106,0,0.00,0,0,0,0,28405,50000,8590,50000,0,0,0,0,0.00,0.00,0.00,0.00
2014-06-13 01:40:00,0,44079,0,0.00,0,0,0,0,38463,50000,4396,44316,0,0,0,0,0.00,0.00,0.00,0.00
2014-06-13 01:50:00,0,45906,0,0.00,0,0,0,0,29663,50000,6352,49429,0,0,0,0,0.00,0.00,0.00,0.00
2014-06-13 02:00:00,0,42439,0,0.00,0,0,0,0,28529,50000,7339,44930,0,0,0,0,0.00,0.00,0.00,0.00
2014-06-13 02:10:00,0,48237,0,0.00,0,0,0,0,38350,50000,3504,50000,0,0,0,0,0.00,0.00,0.00,0.00
2014-06-13 02:20:00,0,49332,0,0.00,0,0,0,0,45334,50000,1432,50000,0,0,0,0,0.00,0.00,0.00,0.00
2014-06-13 02:30:00,0,49492,0,0.00,0,0,0,0,48417,50000,636,50000,0,0,0,0,0.00,0.00,0.00,0.00
2014-06-13 02:40:00,0,49958,0,0.00,0,0,0,0,49575,50000,128,50000,0,0,0,0,0.00,0.00,0.00,0.00
2014-06-13 02:50:00,0,49240,0,0.00,0,0,0,0,46037,50000,1449,50000,0,0,0,0,0.00,0.00,0.00,0.00
2014-06-13 03:00:00,1,45360,0,0.00,0,2,1,0,30801,50000,5842,47550,0,0,0,0,0.00,0.00,0.00,0.00
2014-06-13 03:10:00,2,43437,0,0.00,0,2,1,2,30008,50000,6579,45577,0,0,0,0,0.00,0.00,0.00,0.00
2014-06-13 03:20:00,2,44544,0,0.00,0,2,1,2,34643,50000,4664,44638,0,0,0,0,0.00,0.00,0.00,0.00
2014-06-13 03:30:00,1,45148,0,0.00,0,2,1,2,31913,50000,5410,47250,0,0,0,0,0.00,0.00,0.00,0.00
2014-06-13 03:40:00,0,44628,0,0.00,0,0,0,0,30646,50000,5775,46178,0,0,0,0,0.00,0.00,0.00,0.00
2014-06-13 03:50:00,0,41957,0,0.00,0,0,0,0,33018,50000,6412,41056,0,0,0,0,0.00,0.00,0.00,0.00
2014-06-13 04:00:00,0,49702,0,0.00,0,0,0,0,47597,50000,722,50000,0,0,0,0,0.00,0.00,0.00,0.00
2014-06-13 04:10:00,0,49994,0,0.00,0,0,0,0,49938,50000,19,50000,0,0,0,0,0.00,0.00,0.00,0.00
2014-06-13 04:20:00,0,49084,0,0.00,0,0,0,0,41292,50000,2599,50000,0,0,0,0,0.00,0.00,0.00,0.00
2014-06-13 04:30:00,0,49068,0,0.00,0,0,0,0,44472,50000,1707,50000,0,0,0,0,0.00,0.00,0.00,0.00
2014-06-13 04:40:00,0,49384,0,0.00,0,0,0,0,47036,50000,1037,50000,0,0,0,0,0.00,0.00,0.00,0.00
2014-06-13 04:50:00,0,47513,0,0.00,0,2,1,0,41753,50000,2819,48948,0,0,0,0,0.00,0.00,0.00,0.00
2014-06-13 05:00:00,0,50000,0,0.00,0,2,1,0,50000,50000,0,50000,0,0,0,0,0.00,0.00,0.00,0.00
2014-06-13 05:10:00,0,50000,0,0.00,0,0,0,0,50000,50000,0,50000,0,0,0,0,0.00,0.00,0.00,0.00
2014-06-13 05:20:00,0,49869,0,0.00,0,0,0,0,48692,50000,392,50000,0,0,0,0,0.00,0.00,0.00,0.00
2014-06-13 05:30:00,0,50000,0,0.00,0,0,0,0,50000,50000,0,50000,0,0,0,0,0.00,0.00,0.00,0.00
2014-06-13 05:40:00,0,49834,0,0.00,0,0,0,0,48345,50000,496,50000,0,0,0,0,0.00,0.00,0.00,0.00
2014-06-13 05:50:00,0,49482,0,0.00,0,0,0,0,45755,50000,1257,50000,0,0,0,0,0.00,0.00,0.00,0.00
2014-06-13 06:00:00,0,48518,0,0.00,0,0,0,0,42118,50000,2523,50000,0,0,0,0,0.00,0.00,0.00,0.00
2014-06-13 06:10:00,0,50000,0,0.00,0,0,0,0,50000,50000,0,50000,0,0,0,0,0.00,0.00,0.00,0.00
2014-06-13 06:20:00,0,49639,0,0.00,0,0,0,0,46386,50000,1084,50000,0,0,0,0,0.00,0.00,0.00,0.00
2014-06-13 06:30:00,0,49905,0,0.00,0,0,0,0,49084,50000,274,50000,0,0,0,0,0.00,0.00,0.00,0.00
2014-06-13 06:40:00,0,49359,0,0.00,0,0,0,0,46949,50000,958,50000,0,0,0,0,0.00,0.00,0.00,0.00
2014-06-13 06:50:00,1,49263,0,0.00,0,2,1,1,44989,50000,1589,50000,0,0,0,0,0.00,0.00,0.00,0.00
2014-06-13 07:00:00,0,49118,0,0.00,0,0,0,0,45370,50000,1700,50000,0,0,0,0,0.00,0.00,0.00,0.00
2014-06-13 07:10:00,0,50000,0,0.00,0,0,0,0,50000,50000,0,50000,0,0,0,0,0.00,0.00,0.00,0.00
2014-06-13 07:20:00,2,50000,0,0.00,0,2,1,2,50000,50000,0,50000,0,0,0,0,0.00,0.00,0.00,0.00
2014-06-13 07:30:00,2,49534,0,0.00,2,2,0,2,45342,50000,1397,50000,0,0,0,0,0.00,0.00,0.00,0.00
"Period start","avg(HW err(1)/warn(2) (#))","avg(Visibility (m))","avg(Weather code (#))","avg(Precip intensity (mm/h))","min(HW err(1)/warn(2) (#))","max(HW err(1)/warn(2) (#))","std(HW err(1)/warn(2) (#))","med(HW err(1)/warn(2) (#))","min(Visibility (m))","max(Visibility (m))","std(Visibility (m))","med(Visibility (m))","min(Weather code (#))","max(Weather code (#))","std(Weather code (#))","med(Weather code (#))","min(Precip intensity (mm/h))","max(Precip intensity (mm/h))","std(Precip intensity (mm/h))","med(Precip intensity (mm/h))"
2014-06-13 07:40:00,2,49995,0,0.00,2,2,0,2,49956,50000,14,50000,0,0,0,0,0.00,0.00,0.00,0.00
2014-06-13 07:50:00,2,49910,0,0.00,2,2,0,2,49384,50000,195,50000,0,0,0,0,0.00,0.00,0.00,0.00
2014-06-13 08:00:00,2,50000,0,0.00,2,2,0,2,50000,50000,0,50000,0,0,0,0,0.00,0.00,0.00,0.00
2014-06-13 08:10:00,1,49927,0,0.00,0,2,1,2,49271,50000,219,50000,0,0,0,0,0.00,0.00,0.00,0.00
"Period start","avg(HW err(1)/warn(2) (#))","avg(Visibility (m))","avg(Weather code (#))","avg(Precip intensity (mm/h))","min(HW err(1)/warn(2) (#))","max(HW err(1)/warn(2) (#))","std(HW err(1)/warn(2) (#))","med(HW err(1)/warn(2) (#))","min(Visibility (m))","max(Visibility (m))","std(Visibility (m))","med(Visibility (m))","min(Weather code (#))","max(Weather code (#))","std(Weather code (#))","med(Weather code (#))","min(Precip intensity (mm/h))","max(Precip intensity (mm/h))","std(Precip intensity (mm/h))","med(Precip intensity (mm/h))"
2014-06-13 08:30:00,1,49613,0,0.00,0,2,1,2,46129,50000,1161,50000,0,0,0,0,0.00,0.00,0.00,0.00
2014-06-13 08:40:00,2,49789,0,0.00,0,2,1,2,47891,50000,633,50000,0,0,0,0,0.00,0.00,0.00,0.00
2014-06-13 08:50:00,2,50000,0,0.00,2,2,0,2,50000,50000,0,50000,0,0,0,0,0.00,0.00,0.00,0.00
2014-06-13 09:00:00,2,49537,0,0.00,2,2,0,2,46760,50000,1014,50000,0,0,0,0,0.00,0.00,0.00,0.00
2014-06-13 09:10:00,2,48997,0,0.00,2,2,0,2,45242,50000,1429,49632,0,0,0,0,0.00,0.00,0.00,0.00
2014-06-13 09:20:00,2,49388,0,0.00,2,2,0,2,47329,50000,966,50000,0,0,0,0,0.00,0.00,0.00,0.00
2014-06-13 09:30:00,2,50000,0,0.00,2,2,0,2,50000,50000,0,50000,0,0,0,0,0.00,0.00,0.00,0.00
2014-06-13 09:40:00,2,49885,0,0.00,2,2,0,2,48849,50000,345,50000,0,0,0,0,0.00,0.00,0.00,0.00
2014-06-13 09:50:00,2,50000,0,0.00,2,2,0,2,50000,50000,0,50000,0,0,0,0,0.00,0.00,0.00,0.00
2014-06-13 10:00:00,2,49823,0,0.00,2,2,0,2,48281,50000,514,50000,0,0,0,0,0.00,0.00,0.00,0.00
2014-06-13 10:10:00,2,49366,0,0.00,2,2,0,2,46233,50000,1295,50000,0,0,0,0,0.00,0.00,0.00,0.00
"Period start","avg(HW err(1)/warn(2) (#))","avg(Visibility (m))","avg(Weather code (#))","avg(Precip intensity (mm/h))","min(HW err(1)/warn(2) (#))","max(HW err(1)/warn(2) (#))","std(HW err(1)/warn(2) (#))","med(HW err(1)/warn(2) (#))","min(Visibility (m))","max(Visibility (m))","std(Visibility (m))","med(Visibility (m))","min(Weather code (#))","max(Weather code (#))","std(Weather code (#))","med(Weather code (#))","min(Precip intensity (mm/h))","max(Precip intensity (mm/h))","std(Precip intensity (mm/h))","med(Precip intensity (mm/h))"
2014-06-13 10:30:00,2,50000,0,0.00,2,2,0,2,50000,50000,0,50000,0,0,0,0,0.00,0.00,0.00,0.00
2014-06-13 10:40:00,2,50000,0,0.00,2,2,0,2,50000,50000,0,50000,0,0,0,0,0.00,0.00,0.00,0.00
2014-06-13 10:50:00,2,49784,0,0.00,2,2,0,2,48756,50000,438,50000,0,0,0,0,0.00,0.00,0.00,0.00
2014-06-13 11:00:00,2,50000,0,0.00,2,2,0,2,50000,50000,0,50000,0,0,0,0,0.00,0.00,0.00,0.00
2014-06-13 11:10:00,2,50000,0,0.00,2,2,0,2,50000,50000,0,50000,0,0,0,0,0.00,0.00,0.00,0.00
2014-06-13 11:20:00,1,49709,0,0.00,0,2,1,0,48065,50000,621,50000,0,0,0,0,0.00,0.00,0.00,0.00
2014-06-13 11:30:00,0,50000,0,0.00,0,0,0,0,50000,50000,0,50000,0,0,0,0,0.00,0.00,0.00,0.00
2014-06-13 11:40:00,0,50000,0,0.00,0,0,0,0,50000,50000,0,50000,0,0,0,0,0.00,0.00,0.00,0.00
2014-06-13 11:50:00,0,49947,0,0.00,0,0,0,0,49471,50000,159,50000,0,0,0,0,0.00,0.00,0.00,0.00
2014-06-13 12:00:00,0,50000,0,0.00,0,0,0,0,50000,50000,0,50000,0,0,0,0,0.00,0.00,0.00,0.00
2014-06-13 12:10:00,0,50000,0,0.00,0,0,0,0,50000,50000,0,50000,0,0,0,0,0.00,0.00,0.00,0.00
2014-06-13 12:20:00,0,50000,0,0.00,0,0,0,0,50000,50000,0,50000,0,0,0,0,0.00,0.00,0.00,0.00
2014-06-13 12:30:00,0,50000,0,0.00,0,0,0,0,50000,50000,0,50000,0,0,0,0,0.00,0.00,0.00,0.00
2014-06-13 12:40:00,0,50000,0,0.00,0,0,0,0,50000,50000,0,50000,0,0,0,0,0.00,0.00,0.00,0.00
2014-06-13 12:50:00,0,49829,0,0.00,0,0,0,0,48294,50000,512,50000,0,0,0,0,0.00,0.00,0.00,0.00
2014-06-13 13:00:00,0,49777,0,0.00,0,0,0,0,47774,50000,668,50000,0,0,0,0,0.00,0.00,0.00,0.00
2014-06-13 13:10:00,0,50000,0,0.00,0,0,0,0,50000,50000,0,50000,0,0,0,0,0.00,0.00,0.00,0.00
2014-06-13 13:20:00,0,50000,0,0.00,0,0,0,0,50000,50000,0,50000,0,0,0,0,0.00,0.00,0.00,0.00
2014-06-13 13:30:00,0,49998,8,0.27,0,0,0,0,49983,50000,5,50000,0,40,16,0,0.00,2.65,0.80,0.00
2014-06-13 13:40:00,0,49140,55,0.40,0,0,0,0,46378,50000,1281,49862,40,61,7,56,0.05,0.90,0.30,0.35
2014-06-13 13:50:00,0,50000,18,0.00,0,0,0,0,50000,50000,0,50000,0,51,23,0,0.00,0.00,0.00,0.00
2014-06-13 14:00:00,0,50000,0,0.00,0,0,0,0,50000,50000,0,50000,0,0,0,0,0.00,0.00,0.00,0.00
2014-06-13 14:10:00,0,46898,6,0.02,0,0,0,0,29955,50000,6527,50000,0,61,18,0,0.00,0.20,0.06,0.00
2014-06-13 14:20:00,0,46918,39,0.21,0,0,0,0,29953,50000,6114,50000,0,61,26,51,0.00,1.15,0.34,0.03
2014-06-13 14:30:00,0,40357,58,0.55,0,0,0,0,24704,48348,7720,43659,51,61,5,61,0.00,1.30,0.50,0.35
2014-06-13 14:40:00,0,34546,52,0.47,0,0,0,0,19375,50000,12660,30491,51,52,0,52,0.00,1.25,0.35,0.47
2014-06-13 14:50:00,0,26314,52,0.84,0,0,0,0,22468,34727,3967,25238,52,52,0,52,0.30,1.60,0.34,0.85
2014-06-13 15:00:00,0,32359,31,0.27,0,0,0,0,19291,47104,11492,30853,0,52,25,51,0.00,0.70,0.28,0.17
2014-06-13 15:10:00,0,28437,0,0.00,0,0,0,0,7377,48132,15627,32632,0,0,0,0,0.00,0.00,0.00,0.00
2014-06-13 15:20:00,0,7871,48,0.74,0,0,0,0,6264,9708,1044,7762,40,52,5,52,0.15,1.45,0.38,0.65
2014-06-13 15:30:00,0,32812,31,0.10,0,0,0,0,10882,50000,15456,36176,0,52,25,51,0.00,0.70,0.21,0.00
2014-06-13 15:40:00,0,49983,0,0.00,0,0,0,0,49829,50000,51,50000,0,0,0,0,0.00,0.00,0.00,0.00
2014-06-13 15:50:00,0,50000,0,0.00,0,0,0,0,50000,50000,0,50000,0,0,0,0,0.00,0.00,0.00,0.00
2014-06-13 16:00:00,0,50000,0,0.00,0,0,0,0,50000,50000,0,50000,0,0,0,0,0.00,0.00,0.00,0.00
2014-06-13 16:10:00,0,49858,0,0.00,0,0,0,0,48578,50000,427,50000,0,0,0,0,0.00,0.00,0.00,0.00
2014-06-13 16:20:00,0,50000,0,0.00,0,0,0,0,50000,50000,0,50000,0,0,0,0,0.00,0.00,0.00,0.00
2014-06-13 16:30:00,0,49491,0,0.00,0,0,0,0,47165,50000,1003,50000,0,0,0,0,0.00,0.00,0.00,0.00
2014-06-13 16:40:00,0,50000,0,0.00,0,0,0,0,50000,50000,0,50000,0,0,0,0,0.00,0.00,0.00,0.00
2014-06-13 16:50:00,0,49931,0,0.00,0,0,0,0,49313,50000,206,50000,0,0,0,0,0.00,0.00,0.00,0.00
2014-06-13 17:00:00,0,50000,0,0.00,0,0,0,0,50000,50000,0,50000,0,0,0,0,0.00,0.00,0.00,0.00
2014-06-13 17:10:00,0,50000,0,0.00,0,0,0,0,50000,50000,0,50000,0,0,0,0,0.00,0.00,0.00,0.00
2014-06-13 17:20:00,0,50000,0,0.00,0,0,0,0,50000,50000,0,50000,0,0,0,0,0.00,0.00,0.00,0.00
2014-06-13 17:30:00,0,50000,0,0.00,0,0,0,0,50000,50000,0,50000,0,0,0,0,0.00,0.00,0.00,0.00
2014-06-13 17:40:00,0,50000,0,0.00,0,0,0,0,50000,50000,0,50000,0,0,0,0,0.00,0.00,0.00,0.00
2014-06-13 17:50:00,0,50000,0,0.00,0,0,0,0,50000,50000,0,50000,0,0,0,0,0.00,0.00,0.00,0.00
2014-06-13 18:00:00,0,50000,0,0.00,0,0,0,0,50000,50000,0,50000,0,0,0,0,0.00,0.00,0.00,0.00
2014-06-13 18:10:00,0,50000,0,0.00,0,0,0,0,50000,50000,0,50000,0,0,0,0,0.00,0.00,0.00,0.00
2014-06-13 18:20:00,0,49533,0,0.00,0,0,0,0,45330,50000,1401,50000,0,0,0,0,0.00,0.00,0.00,0.00
2014-06-13 18:30:00,0,50000,0,0.00,0,0,0,0,50000,50000,0,50000,0,0,0,0,0.00,0.00,0.00,0.00
2014-06-13 18:40:00,0,49675,0,0.00,0,0,0,0,48407,50000,554,50000,0,0,0,0,0.00,0.00,0.00,0.00
2014-06-13 18:50:00,0,49784,0,0.00,0,0,0,0,48490,50000,473,50000,0,0,0,0,0.00,0.00,0.00,0.00
2014-06-13 19:00:00,0,50000,0,0.00,0,0,0,0,50000,50000,0,50000,0,0,0,0,0.00,0.00,0.00,0.00
2014-06-13 19:10:00,0,48788,0,0.00,0,0,0,0,40399,50000,2896,50000,0,0,0,0,0.00,0.00,0.00,0.00
2014-06-13 19:20:00,0,49727,0,0.00,0,0,0,0,47268,50000,820,50000,0,0,0,0,0.00,0.00,0.00,0.00
2014-06-13 19:30:00,0,50000,0,0.00,0,0,0,0,50000,50000,0,50000,0,0,0,0,0.00,0.00,0.00,0.00
2014-06-13 19:40:00,0,50000,0,0.00,0,0,0,0,50000,50000,0,50000,0,0,0,0,0.00,0.00,0.00,0.00
2014-06-13 19:50:00,0,48934,0,0.00,0,0,0,0,44002,50000,1892,50000,0,0,0,0,0.00,0.00,0.00,0.00
2014-06-13 20:00:00,0,49052,0,0.00,0,0,0,0,44233,50000,1799,50000,0,0,0,0,0.00,0.00,0.00,0.00
2014-06-13 20:10:00,0,48611,0,0.00,0,0,0,0,41063,50000,2632,49980,0,0,0,0,0.00,0.00,0.00,0.00
2014-06-13 20:20:00,0,48704,0,0.00,0,0,0,0,41767,50000,2621,50000,0,0,0,0,0.00,0.00,0.00,0.00
2014-06-13 20:30:00,0,49832,0,0.00,0,0,0,0,48981,50000,338,50000,0,0,0,0,0.00,0.00,0.00,0.00
2014-06-13 20:40:00,0,50000,0,0.00,0,0,0,0,50000,50000,0,50000,0,0,0,0,0.00,0.00,0.00,0.00
2014-06-13 20:50:00,0,50000,0,0.00,0,0,0,0,50000,50000,0,50000,0,0,0,0,0.00,0.00,0.00,0.00
2014-06-13 21:00:00,0,49887,0,0.00,0,0,0,0,48871,50000,339,50000,0,0,0,0,0.00,0.00,0.00,0.00
2014-06-13 21:10:00,0,50000,0,0.00,0,0,0,0,50000,50000,0,50000,0,0,0,0,0.00,0.00,0.00,0.00
2014-06-13 21:20:00,0,50000,0,0.00,0,0,0,0,50000,50000,0,50000,0,0,0,0,0.00,0.00,0.00,0.00
2014-06-13 21:30:00,0,45527,0,0.00,0,0,0,0,32724,50000,5126,46080,0,0,0,0,0.00,0.00,0.00,0.00
2014-06-13 21:40:00,0,48232,0,0.00,0,0,0,0,43929,50000,1752,48683,0,0,0,0,0.00,0.00,0.00,0.00
2014-06-13 21:50:00,0,49446,0,0.00,0,0,0,0,45518,50000,1347,50000,0,0,0,0,0.00,0.00,0.00,0.00
2014-06-13 22:00:00,0,48244,0,0.00,0,0,0,0,42717,50000,2749,50000,0,0,0,0,0.00,0.00,0.00,0.00
2014-06-13 22:10:00,0,48312,0,0.00,0,0,0,0,45521,50000,1508,48586,0,0,0,0,0.00,0.00,0.00,0.00
2014-06-13 22:20:00,0,49432,0,0.00,0,0,0,0,47010,50000,1139,50000,0,0,0,0,0.00,0.00,0.00,0.00
2014-06-13 22:30:00,0,50000,0,0.00,0,0,0,0,50000,50000,0,50000,0,0,0,0,0.00,0.00,0.00,0.00
2014-06-13 22:40:00,0,48330,0,0.00,0,0,0,0,42212,50000,2996,49936,0,0,0,0,0.00,0.00,0.00,0.00
2014-06-13 22:50:00,0,48921,0,0.00,0,0,0,0,46144,50000,1393,49913,0,0,0,0,0.00,0.00,0.00,0.00
2014-06-13 23:00:00,0,43874,0,0.00,0,0,0,0,29017,50000,6965,46058,0,0,0,0,0.00,0.00,0.00,0.00
2014-06-13 23:10:00,0,48628,0,0.00,0,0,0,0,43353,50000,2224,50000,0,0,0,0,0.00,0.00,0.00,0.00
2014-06-13 23:20:00,0,49668,0,0.00,0,0,0,0,46989,50000,898,50000,0,0,0,0,0.00,0.00,0.00,0.00
2014-06-13 23:30:00,0,49074,0,0.00,0,0,0,0,43564,50000,2021,50000,0,0,0,0,0.00,0.00,0.00,0.00
2014-06-13 23:40:00,0,49920,0,0.00,0,0,0,0,49195,50000,242,50000,0,0,0,0,0.00,0.00,0.00,0.00
2014-06-13 23:50:00,0,46109,0,0.00,0,0,0,0,34488,50000,5290,49689,0,0,0,0,0.00,0.00,0.00,0.00
"Period start","avg(HW err(1)/warn(2) (#))","avg(Visibility (m))","avg(Weather code (#))","avg(Precip intensity (mm/h))","min(HW err(1)/warn(2) (#))","max(HW err(1)/warn(2) (#))","std(HW err(1)/warn(2) (#))","med(HW err(1)/warn(2) (#))","min(Visibility (m))","max(Visibility (m))","std(Visibility (m))","med(Visibility (m))","min(Weather code (#))","max(Weather code (#))","std(Weather code (#))","med(Weather code (#))","min(Precip intensity (mm/h))","max(Precip intensity (mm/h))","std(Precip intensity (mm/h))","med(Precip intensity (mm/h))"
